Back to catalog

SL-14 R/B

AlivePO
NORAD 14552·ROCKET BODY·🇷🇺 Russia

Launched Dec 15, 1983 from Plesetsk Cosmodrome

Loading…

Next Passes (next 24 hours)

TLE

FreshSource: Space-Track

Epoch: Sep 14, 2026, 05:32 UTC

1 14552U 83122B   26257.23056552  .00000278  00000-0  28919-4 0  9993
2 14552  82.5254 152.4264 0016604 169.9638 190.1914 14.85991493288835

Track SL-14 R/B in real time with AllMySat

Download on the App Store